Time,TemperatureF,DewpointF,PressureIn,WindDirection,WindDirectionDegrees,WindSpeedMPH,WindSpeedGustMPH,Humidity,HourlyPrecipIn,Conditions,Clouds,dailyrainin,SolarRadiationWatts/m^2,SoftwareType,DateUTC
2013-02-01 00:01:00,38.0,23.0,-100.00,ESE,112,1.0,4.0,55,0.00,,,0.00,0.000000,,2013-02-01 08:01:00,
2013-02-01 00:11:00,38.0,23.0,-100.00,ESE,112,1.0,4.0,55,0.00,,,0.00,0.000000,,2013-02-01 08:11:00,
2013-02-01 00:42:00,41.0,22.0,-100.00,ESE,111,1.0,6.0,47,0.00,,,0.00,0.000000,,2013-02-01 08:42:00,
2013-02-01 00:52:00,41.0,22.0,-100.00,ESE,111,1.0,6.0,47,0.00,,,0.00,0.000000,,2013-02-01 08:52:00,
2013-02-01 01:01:00,41.0,22.0,-100.00,ESE,111,1.0,6.0,47,0.00,,,0.00,0.000000,,2013-02-01 09:01:00,
2013-02-01 01:11:00,41.0,22.0,-100.00,ESE,111,1.0,6.0,47,0.00,,,0.00,0.000000,,2013-02-01 09:11:00,
2013-02-01 01:32:00,39.0,22.0,-100.00,ESE,110,3.0,7.0,51,0.00,,,0.00,0.000000,,2013-02-01 09:32:00,
2013-02-01 01:42:00,39.0,22.0,-100.00,ESE,110,3.0,7.0,51,0.00,,,0.00,0.000000,,2013-02-01 09:42:00,
2013-02-01 01:52:00,39.0,22.0,-100.00,ESE,110,3.0,7.0,51,0.00,,,0.00,0.000000,,2013-02-01 09:52:00,
2013-02-01 02:01:00,39.0,22.0,-100.00,ESE,110,3.0,7.0,51,0.00,,,0.00,0.000000,,2013-02-01 10:01:00,
2013-02-01 02:11:00,39.0,22.0,-100.00,ESE,110,3.0,7.0,51,0.00,,,0.00,0.000000,,2013-02-01 10:11:00,
2013-02-01 02:32:00,38.0,15.0,-100.00,SE,128,0.0,7.0,39,0.00,,,0.00,0.000000,,2013-02-01 10:32:00,
2013-02-01 02:43:00,38.0,15.0,-100.00,SE,128,0.0,7.0,39,0.00,,,0.00,0.000000,,2013-02-01 10:43:00,
2013-02-01 02:53:00,38.0,15.0,-100.00,SE,128,0.0,7.0,39,0.00,,,0.00,0.000000,,2013-02-01 10:53:00,
2013-02-01 03:01:00,38.0,15.0,-100.00,SE,128,0.0,7.0,39,0.00,,,0.00,0.000000,,2013-02-01 11:01:00,
2013-02-01 03:11:00,38.0,15.0,-100.00,SE,128,0.0,7.0,39,0.00,,,0.00,0.000000,,2013-02-01 11:11:00,
2013-02-01 03:42:00,38.0,19.0,-100.00,ESE,114,0.0,5.0,45,0.00,,,0.00,0.000000,,2013-02-01 11:42:00,
2013-02-01 03:53:00,38.0,19.0,-100.00,ESE,114,0.0,5.0,45,0.00,,,0.00,0.000000,,2013-02-01 11:53:00,
2013-02-01 04:02:00,38.0,19.0,-100.00,ESE,114,0.0,5.0,45,0.00,,,0.00,0.000000,,2013-02-01 12:02:00,
2013-02-01 04:12:00,38.0,19.0,-100.00,ESE,114,0.0,5.0,45,0.00,,,0.00,0.000000,,2013-02-01 12:12:00,
2013-02-01 04:32:00,39.0,14.0,-100.00,ESE,121,0.0,4.0,35,0.00,,,0.00,0.000000,,2013-02-01 12:32:00,
2013-02-01 04:42:00,39.0,14.0,-100.00,ESE,121,0.0,4.0,35,0.00,,,0.00,0.000000,,2013-02-01 12:42:00,
2013-02-01 04:52:00,39.0,14.0,-100.00,ESE,121,0.0,4.0,35,0.00,,,0.00,0.000000,,2013-02-01 12:52:00,
2013-02-01 05:02:00,39.0,14.0,-100.00,ESE,121,0.0,4.0,35,0.00,,,0.00,0.000000,,2013-02-01 13:02:00,
2013-02-01 05:11:00,39.0,14.0,-100.00,ESE,121,0.0,4.0,35,0.00,,,0.00,0.000000,,2013-02-01 13:11:00,
2013-02-01 05:33:00,39.0,18.0,-100.00,ESE,115,0.0,5.0,42,0.00,,,0.00,0.000000,,2013-02-01 13:33:00,
2013-02-01 05:42:00,39.0,18.0,-100.00,ESE,115,0.0,5.0,42,0.00,,,0.00,0.000000,,2013-02-01 13:42:00,
2013-02-01 05:53:00,39.0,18.0,-100.00,ESE,115,0.0,5.0,42,0.00,,,0.00,0.000000,,2013-02-01 13:53:00,
2013-02-01 06:03:00,39.0,18.0,-100.00,ESE,115,0.0,5.0,42,0.00,,,0.00,0.000000,,2013-02-01 14:03:00,
2013-02-01 06:11:00,39.0,18.0,-100.00,ESE,115,0.0,5.0,42,0.00,,,0.00,0.000000,,2013-02-01 14:11:00,
2013-02-01 06:32:00,39.0,16.0,-100.00,SE,128,1.0,4.0,38,0.00,,,0.00,0.000000,,2013-02-01 14:32:00,
2013-02-01 06:42:00,39.0,16.0,-100.00,SE,128,1.0,4.0,38,0.00,,,0.00,0.000000,,2013-02-01 14:42:00,
2013-02-01 06:52:00,39.0,16.0,-100.00,SE,128,1.0,4.0,38,0.00,,,0.00,0.000000,,2013-02-01 14:52:00,
2013-02-01 07:02:00,39.0,16.0,-100.00,SE,128,1.0,4.0,38,0.00,,,0.00,0.000000,,2013-02-01 15:02:00,
2013-02-01 07:11:00,39.0,16.0,-100.00,SE,128,1.0,4.0,38,0.00,,,0.00,0.000000,,2013-02-01 15:11:00,
2013-02-01 07:33:00,41.0,17.0,-100.00,East,85,0.0,5.0,37,0.00,,,0.00,5.000000,,2013-02-01 15:33:00,
2013-02-01 07:42:00,41.0,17.0,-100.00,East,85,0.0,5.0,37,0.00,,,0.00,5.000000,,2013-02-01 15:42:00,
2013-02-01 07:52:00,41.0,17.0,-100.00,East,85,0.0,5.0,37,0.00,,,0.00,5.000000,,2013-02-01 15:52:00,
2013-02-01 08:02:00,41.0,17.0,-100.00,East,85,0.0,5.0,37,0.00,,,0.00,5.000000,,2013-02-01 16:02:00,
2013-02-01 08:11:00,41.0,17.0,-100.00,East,85,0.0,5.0,37,0.00,,,0.00,5.000000,,2013-02-01 16:11:00,
2013-02-01 08:33:00,55.0,20.0,-100.00,SE,139,0.0,5.0,25,0.00,,,0.00,180.000000,,2013-02-01 16:33:00,
2013-02-01 08:43:00,55.0,20.0,-100.00,SE,139,0.0,5.0,25,0.00,,,0.00,180.000000,,2013-02-01 16:43:00,
2013-02-01 08:52:00,55.0,20.0,-100.00,SE,139,0.0,5.0,25,0.00,,,0.00,180.000000,,2013-02-01 16:52:00,
2013-02-01 09:02:00,55.0,20.0,-100.00,SE,139,0.0,5.0,25,0.00,,,0.00,180.000000,,2013-02-01 17:02:00,
2013-02-01 09:32:00,65.0,19.0,-100.00,SE,142,0.0,4.0,17,0.00,,,0.00,447.000000,,2013-02-01 17:32:00,
2013-02-01 09:42:00,65.0,19.0,-100.00,SE,142,0.0,4.0,17,0.00,,,0.00,447.000000,,2013-02-01 17:42:00,
2013-02-01 09:53:00,65.0,19.0,-100.00,SE,142,0.0,4.0,17,0.00,,,0.00,447.000000,,2013-02-01 17:53:00,
2013-02-01 10:02:00,65.0,19.0,-100.00,SE,142,0.0,4.0,17,0.00,,,0.00,447.000000,,2013-02-01 18:02:00,
2013-02-01 10:32:00,66.0,20.0,-100.00,South,181,1.0,8.0,17,-99.99,,,0.00,654.000000,,2013-02-01 18:32:00,
2013-02-01 10:42:00,66.0,20.0,-100.00,South,181,1.0,8.0,17,-99.99,,,0.00,654.000000,,2013-02-01 18:42:00,
2013-02-01 10:53:00,66.0,20.0,-100.00,South,181,1.0,8.0,17,-99.99,,,0.00,654.000000,,2013-02-01 18:53:00,
2013-02-01 11:02:00,66.0,20.0,-100.00,South,181,1.0,8.0,17,-99.99,,,0.00,654.000000,,2013-02-01 19:02:00,
2013-02-01 11:42:00,68.0,28.0,-100.00,WNW,292,3.0,8.0,22,0.00,,,0.00,788.000000,,2013-02-01 19:42:00,
2013-02-01 11:52:00,68.0,28.0,-100.00,WNW,292,3.0,8.0,22,0.00,,,0.00,788.000000,,2013-02-01 19:52:00,
2013-02-01 12:02:00,68.0,28.0,-100.00,WNW,292,3.0,8.0,22,0.00,,,0.00,788.000000,,2013-02-01 20:02:00,
2013-02-01 12:11:00,68.0,28.0,-100.00,WNW,292,3.0,8.0,22,0.00,,,0.00,788.000000,,2013-02-01 20:11:00,
2013-02-01 12:42:00,68.0,25.0,-100.00,WNW,284,3.0,11.0,20,0.00,,,0.00,863.000000,,2013-02-01 20:42:00,
2013-02-01 12:52:00,68.0,25.0,-100.00,WNW,284,3.0,11.0,20,0.00,,,0.00,863.000000,,2013-02-01 20:52:00,
2013-02-01 13:01:00,68.0,25.0,-100.00,WNW,284,3.0,11.0,20,0.00,,,0.00,863.000000,,2013-02-01 21:01:00,
2013-02-01 13:32:00,68.0,29.0,-100.00,West,266,4.0,8.0,23,0.00,,,0.00,828.000000,,2013-02-01 21:32:00,
2013-02-01 13:42:00,68.0,29.0,-100.00,West,266,4.0,8.0,23,0.00,,,0.00,828.000000,,2013-02-01 21:42:00,
2013-02-01 13:52:00,68.0,29.0,-100.00,West,266,4.0,8.0,23,0.00,,,0.00,828.000000,,2013-02-01 21:52:00,
2013-02-01 14:02:00,68.0,29.0,-100.00,West,266,4.0,8.0,23,0.00,,,0.00,828.000000,,2013-02-01 22:02:00,
2013-02-01 14:11:00,68.0,29.0,-100.00,West,266,4.0,8.0,23,0.00,,,0.00,828.000000,,2013-02-01 22:11:00,
2013-02-01 14:32:00,64.0,26.0,-100.00,East,99,3.0,10.0,24,0.00,,,0.00,660.000000,,2013-02-01 22:32:00,
2013-02-01 14:42:00,64.0,26.0,-100.00,East,99,3.0,10.0,24,0.00,,,0.00,660.000000,,2013-02-01 22:42:00,
2013-02-01 14:52:00,64.0,26.0,-100.00,East,99,3.0,10.0,24,0.00,,,0.00,660.000000,,2013-02-01 22:52:00,
2013-02-01 15:01:00,64.0,26.0,-100.00,East,99,3.0,10.0,24,0.00,,,0.00,660.000000,,2013-02-01 23:01:00,
2013-02-01 15:11:00,64.0,26.0,-100.00,East,99,3.0,10.0,24,0.00,,,0.00,660.000000,,2013-02-01 23:11:00,
2013-02-01 15:42:00,64.0,30.0,-100.00,West,271,2.0,9.0,28,0.00,,,0.00,496.000000,,2013-02-01 23:42:00,
2013-02-01 15:52:00,64.0,30.0,-100.00,West,271,2.0,9.0,28,0.00,,,0.00,496.000000,,2013-02-01 23:52:00,
2013-02-01 16:02:00,64.0,30.0,-100.00,West,271,2.0,9.0,28,0.00,,,0.00,496.000000,,2013-02-02 00:02:00,
2013-02-01 16:11:00,64.0,30.0,-100.00,West,271,2.0,9.0,28,0.00,,,0.00,496.000000,,2013-02-02 00:11:00,
2013-02-01 16:32:00,61.0,29.0,-100.00,West,272,2.0,7.0,29,0.00,,,0.00,325.000000,,2013-02-02 00:32:00,
2013-02-01 16:42:00,61.0,29.0,-100.00,West,272,2.0,7.0,29,0.00,,,0.00,325.000000,,2013-02-02 00:42:00,
2013-02-01 16:52:00,61.0,29.0,-100.00,West,272,2.0,7.0,29,0.00,,,0.00,325.000000,,2013-02-02 00:52:00,
2013-02-01 17:02:00,61.0,29.0,-100.00,West,272,2.0,7.0,29,0.00,,,0.00,325.000000,,2013-02-02 01:02:00,
2013-02-01 17:11:00,61.0,29.0,-100.00,West,272,2.0,7.0,29,0.00,,,0.00,325.000000,,2013-02-02 01:11:00,
2013-02-01 17:32:00,54.0,27.0,-100.00,NNW,331,0.0,6.0,35,0.00,,,0.00,82.000000,,2013-02-02 01:32:00,
2013-02-01 17:42:00,54.0,27.0,-100.00,NNW,331,0.0,6.0,35,0.00,,,0.00,82.000000,,2013-02-02 01:42:00,
2013-02-01 17:52:00,54.0,27.0,-100.00,NNW,331,0.0,6.0,35,0.00,,,0.00,82.000000,,2013-02-02 01:52:00,
2013-02-01 18:01:00,54.0,27.0,-100.00,NNW,331,0.0,6.0,35,0.00,,,0.00,82.000000,,2013-02-02 02:01:00,
2013-02-01 18:11:00,54.0,27.0,-100.00,NNW,331,0.0,6.0,35,0.00,,,0.00,82.000000,,2013-02-02 02:11:00,
2013-02-01 18:42:00,48.0,29.0,-100.00,SE,125,0.0,0.0,47,0.00,,,0.00,0.000000,,2013-02-02 02:42:00,
2013-02-01 18:52:00,48.0,29.0,-100.00,SE,125,0.0,0.0,47,0.00,,,0.00,0.000000,,2013-02-02 02:52:00,
2013-02-01 19:02:00,48.0,29.0,-100.00,SE,125,0.0,0.0,47,0.00,,,0.00,0.000000,,2013-02-02 03:02:00,
2013-02-01 19:11:00,48.0,29.0,-100.00,SE,125,0.0,0.0,47,0.00,,,0.00,0.000000,,2013-02-02 03:11:00,
2013-02-01 19:42:00,46.0,26.0,-100.00,SE,124,0.0,6.0,45,0.00,,,0.00,0.000000,,2013-02-02 03:42:00,
2013-02-01 19:52:00,46.0,26.0,-100.00,SE,124,0.0,6.0,45,0.00,,,0.00,0.000000,,2013-02-02 03:52:00,
2013-02-01 20:01:00,46.0,26.0,-100.00,SE,124,0.0,6.0,45,0.00,,,0.00,0.000000,,2013-02-02 04:01:00,
2013-02-01 20:11:00,46.0,26.0,-100.00,SE,124,0.0,6.0,45,0.00,,,0.00,0.000000,,2013-02-02 04:11:00,
2013-02-01 20:32:00,44.0,28.0,-100.00,SE,124,0.0,3.0,54,0.00,,,0.00,0.000000,,2013-02-02 04:32:00,
2013-02-01 20:42:00,44.0,28.0,-100.00,SE,124,0.0,3.0,54,0.00,,,0.00,0.000000,,2013-02-02 04:42:00,
2013-02-01 20:52:00,44.0,28.0,-100.00,SE,124,0.0,3.0,54,0.00,,,0.00,0.000000,,2013-02-02 04:52:00,
2013-02-01 21:02:00,44.0,28.0,-100.00,SE,124,0.0,3.0,54,0.00,,,0.00,0.000000,,2013-02-02 05:02:00,
2013-02-01 21:11:00,44.0,28.0,-100.00,SE,124,0.0,3.0,54,0.00,,,0.00,0.000000,,2013-02-02 05:11:00,
2013-02-01 21:33:00,43.0,27.0,-100.00,East,95,2.0,5.0,52,0.00,,,0.00,0.000000,,2013-02-02 05:33:00,
2013-02-01 21:42:00,43.0,27.0,-100.00,East,95,2.0,5.0,52,0.00,,,0.00,0.000000,,2013-02-02 05:42:00,
2013-02-01 21:52:00,43.0,27.0,-100.00,East,95,2.0,5.0,52,0.00,,,0.00,0.000000,,2013-02-02 05:52:00,
2013-02-01 22:02:00,43.0,27.0,-100.00,East,95,2.0,5.0,52,0.00,,,0.00,0.000000,,2013-02-02 06:02:00,
2013-02-01 22:11:00,43.0,27.0,-100.00,East,95,2.0,5.0,52,0.00,,,0.00,0.000000,,2013-02-02 06:11:00,
2013-02-01 22:32:00,43.0,25.0,-100.00,East,89,0.0,5.0,49,0.00,,,0.00,0.000000,,2013-02-02 06:32:00,
2013-02-01 22:42:00,43.0,25.0,-100.00,East,89,0.0,5.0,49,0.00,,,0.00,0.000000,,2013-02-02 06:42:00,
2013-02-01 22:52:00,43.0,25.0,-100.00,East,89,0.0,5.0,49,0.00,,,0.00,0.000000,,2013-02-02 06:52:00,
2013-02-01 23:02:00,43.0,25.0,-100.00,East,89,0.0,5.0,49,0.00,,,0.00,0.000000,,2013-02-02 07:02:00,
2013-02-01 23:11:00,43.0,25.0,-100.00,East,89,0.0,5.0,49,0.00,,,0.00,0.000000,,2013-02-02 07:11:00,
2013-02-01 23:32:00,42.0,21.0,-100.00,ESE,117,0.0,5.0,43,0.00,,,0.00,0.000000,,2013-02-02 07:32:00,
2013-02-01 23:42:00,42.0,21.0,-100.00,ESE,117,0.0,5.0,43,0.00,,,0.00,0.000000,,2013-02-02 07:42:00,
2013-02-01 23:52:00,42.0,21.0,-100.00,ESE,117,0.0,5.0,43,0.00,,,0.00,0.000000,,2013-02-02 07:52:00,